Tacoma, WA

9:18 PM PDT on May 28, 2017 (GMT -0700)
McChord Air Force Base

Weather History for KTCM - July, 2012

Change the Weather History Date:

Tuesday, July 3, 2012

  Actual Average Record
Temperature  
Mean Temperature 56 °F -  
Max Temperature 63 °F 70 °F 93 °F (1970)
Min Temperature 46 °F 49 °F 39 °F (1962)
Degree Days  
Heating Degree Days 9    
Growing Degree Days 6 (Base 50)    
Moisture  
Dew Point 50 °F    
Average Humidity 80    
Maximum Humidity 97    
Minimum Humidity 59    
Precipitation  
Precipitation 0.13 in - - ()
Sea Level Pressure  
Sea Level Pressure 30.02 in    
Wind  
Wind Speed 10 mph (SSW)    
Max Wind Speed 21 mph    
Max Gust Speed 28 mph    
Visibility 10 miles    
Events Rain    
Averages and records for this station are not official NWS values.
T = Trace of Precipitation, MM = Missing Value Source: NWS Daily Summary

Daily Weather History Graph

Daily Weather History Graph

Search for Another Location

Airport or City:

Trip Planner

Search our weather history database for the weather conditions in past years. The results will help you decide how hot, cold, wet, or windy it might be!

Date:

Astronomy

Jul. 03, 2012 Rise Set
Actual Time 5:19 AM PDT 9:08 PM PDT
Civil Twilight 4:40 AM PDT 9:47 PM PDT
Nautical Twilight 3:46 AM PDT 10:41 PM PDT
Astronomical Twilight 2:28 AM PDT 11:59 PM PDT
Moon 9:01 PM PDT (7/3) 5:22 AM PDT (7/3)
Length of Visible Light 17h 07m
Length of Day
15h 48m
Full, 100% of the Moon is Illuminated
Jul 3
Full
Jul 10
Last Quarter
Jul 18
New
Jul 26
First Quarter
Aug 1
Full

Hourly Weather History & Observations

Time (PDT) Temp. Dew Point Humidity Pressure Visibility Wind Dir Wind Speed Gust Speed Precip Events Conditions
12:13 AM 53.6 °F 51.8 °F 94% 29.91 in 5.0 mi SW 9.2 mph - N/A Rain Light Rain
12:28 AM 53.6 °F 51.8 °F 94% 29.91 in 7.0 mi SSW 5.8 mph - N/A Rain Light Rain
12:40 AM 53.6 °F 51.8 °F 94% 29.91 in 10.0 mi SSW 5.8 mph - N/A   Overcast
12:54 AM 53.6 °F 51.8 °F 94% 29.90 in 10.0 mi South 6.9 mph - N/A Rain Light Rain
12:58 AM 53.6 °F 52.3 °F 95% 29.91 in 10.0 mi SSW 6.9 mph - 0.03 in Rain Light Rain
1:03 AM 53.6 °F 51.8 °F 94% 29.90 in 10.0 mi SSW 4.6 mph - N/A Rain Light Rain
1:07 AM 53.6 °F 51.8 °F 94% 29.90 in 9.0 mi South 5.8 mph - N/A Rain Light Rain
1:26 AM 53.6 °F 51.8 °F 94% 29.89 in 10.0 mi South 5.8 mph - N/A   Overcast
1:35 AM 53.6 °F 51.8 °F 94% 29.89 in 10.0 mi SSE 4.6 mph - N/A   Overcast
1:41 AM 53.6 °F 51.8 °F 94% 29.89 in 10.0 mi South 4.6 mph - N/A Rain Light Rain
1:53 AM 53.6 °F 51.8 °F 94% 29.89 in 10.0 mi SSE 4.6 mph - N/A   Overcast
1:58 AM 53.1 °F 52.3 °F 97% 29.90 in 10.0 mi SSE 5.8 mph - 0.03 in   Overcast
2:28 AM 53.6 °F 51.8 °F 94% 29.88 in 10.0 mi SSE 5.8 mph - N/A   Overcast
2:58 AM 53.4 °F 52.5 °F 97% 29.88 in 10.0 mi SSE 5.8 mph - N/A   Overcast
3:21 AM 53.6 °F 51.8 °F 94% 29.86 in 10.0 mi SSE 6.9 mph - N/A Rain Light Rain
3:36 AM 53.6 °F 51.8 °F 94% 29.86 in 8.0 mi SSE 6.9 mph - N/A Rain Light Rain
3:56 AM 53.6 °F 51.8 °F 94% 29.87 in 9.0 mi SW 8.1 mph - N/A   Light Drizzle
3:58 AM 53.6 °F 52.5 °F 96% 29.88 in 9.0 mi WSW 8.1 mph - 0.04 in Rain Light Rain
4:01 AM 53.6 °F 51.8 °F 94% 29.88 in 10.0 mi WSW 10.4 mph - N/A Rain Light Rain
4:16 AM 53.6 °F 51.8 °F 94% 29.88 in 10.0 mi SSW 5.8 mph - N/A Rain Light Rain
4:58 AM 53.6 °F 52.0 °F 94% 29.90 in 10.0 mi SSW 13.8 mph - 0.02 in Rain Light Rain
5:03 AM 53.6 °F 51.8 °F 94% 29.89 in 10.0 mi SSW 12.7 mph - N/A   Overcast
5:08 AM 53.6 °F 51.8 °F 94% 29.89 in 10.0 mi SSW 12.7 mph - N/A   Overcast
5:58 AM 53.4 °F 51.4 °F 93% 29.93 in 10.0 mi SW 13.8 mph 20.7 mph 0.00 in   Overcast
6:08 AM 53.6 °F 51.8 °F 94% 29.93 in 10.0 mi SSW 15.0 mph - N/A   Overcast
6:28 AM 53.6 °F 51.8 °F 94% 29.95 in 10.0 mi SSW 12.7 mph - N/A   Overcast
6:58 AM 52.7 °F 50.4 °F 92% 29.99 in 10.0 mi SSW 11.5 mph - N/A   Mostly Cloudy
7:58 AM 55.0 °F 50.7 °F 85% 30.00 in 10.0 mi SSW 11.5 mph - N/A   Scattered Clouds
8:58 AM 56.8 °F 49.5 °F 76% 30.04 in 10.0 mi SSW 15.0 mph - N/A   Mostly Cloudy
9:58 AM 57.9 °F 47.1 °F 67% 30.05 in 10.0 mi SSW 17.3 mph 23.0 mph N/A   Overcast
10:18 AM 59.0 °F 48.2 °F 67% 30.05 in 10.0 mi South 20.7 mph 27.6 mph N/A   Mostly Cloudy
10:38 AM 59.0 °F 48.2 °F 67% 30.06 in 10.0 mi SSW 16.1 mph 23.0 mph N/A   Overcast
10:58 AM 59.2 °F 47.8 °F 66% 30.08 in 10.0 mi SSW 17.3 mph - N/A   Overcast
11:18 AM 59.0 °F 46.4 °F 63% 30.08 in 10.0 mi SSW 18.4 mph 26.5 mph N/A   Overcast
11:23 AM 57.2 °F 46.4 °F 67% 30.08 in 10.0 mi SSW 18.4 mph - N/A   Overcast
11:28 AM 57.2 °F 46.4 °F 67% 30.08 in 10.0 mi SSW 19.6 mph 24.2 mph N/A   Overcast
11:34 AM 57.2 °F 48.2 °F 72% 30.09 in 10.0 mi SW 19.6 mph 25.3 mph N/A Rain Light Rain
11:39 AM 57.2 °F 48.2 °F 72% 30.09 in 10.0 mi SSW 13.8 mph 25.3 mph N/A Rain Light Rain
11:44 AM 59.0 °F 48.2 °F 67% 30.08 in 10.0 mi SSW 15.0 mph 24.2 mph N/A   Overcast
11:58 AM 60.4 °F 49.6 °F 68% 30.10 in 10.0 mi SSW 17.3 mph 24.2 mph 0.00 in   Overcast
12:58 PM 63.0 °F 48.9 °F 60% 30.11 in 10.0 mi SSW 17.3 mph 23.0 mph N/A   Mostly Cloudy
12:59 PM 62.6 °F 48.2 °F 59% 30.10 in 10.0 mi SSW 18.4 mph - N/A Rain Light Rain
1:10 PM 60.8 °F 48.2 °F 63% 30.10 in 10.0 mi SW 16.1 mph 26.5 mph N/A   Mostly Cloudy
1:58 PM 62.2 °F 47.8 °F 59% 30.12 in 10.0 mi SW 16.1 mph - 0.00 in   Mostly Cloudy
2:36 PM 60.8 °F 48.2 °F 63% 30.11 in 10.0 mi WSW 10.4 mph - N/A Rain Light Rain
2:58 PM 57.7 °F 52.0 °F 81% 30.14 in 4.0 mi SW 11.5 mph - 0.01 in Rain Light Rain
3:03 PM 57.2 °F 51.8 °F 82% 30.13 in 10.0 mi WSW 11.5 mph - N/A   Overcast
3:08 PM 59.0 °F 51.8 °F 77% 30.13 in 10.0 mi WSW 9.2 mph - N/A Rain Light Rain
3:18 PM 59.0 °F 51.8 °F 77% 30.13 in 10.0 mi WSW 11.5 mph - N/A   Overcast
3:58 PM 61.3 °F 53.2 °F 75% 30.14 in 10.0 mi WSW 10.4 mph - 0.00 in   Mostly Cloudy
4:24 PM 59.0 °F 50.0 °F 72% 30.13 in 10.0 mi WSW 16.1 mph 21.9 mph N/A Rain Light Rain
4:34 PM 59.0 °F 48.2 °F 67% 30.13 in 10.0 mi WSW 12.7 mph 23.0 mph N/A   Overcast
4:58 PM 61.0 °F 48.9 °F 64% 30.13 in 10.0 mi WSW 16.1 mph - 0.00 in   Overcast
5:31 PM 62.6 °F 48.2 °F 59% 30.13 in 10.0 mi West 16.1 mph - N/A   Partly Cloudy
5:58 PM 61.0 °F 48.2 °F 63% 30.14 in 10.0 mi WSW 10.4 mph - N/A   Mostly Cloudy
6:58 PM 60.3 °F 46.4 °F 60% 30.15 in 10.0 mi West 12.7 mph - N/A   Overcast
7:58 PM 60.1 °F 46.8 °F 61% 30.16 in 10.0 mi West 12.7 mph - N/A   Scattered Clouds
8:58 PM 57.4 °F 46.8 °F 68% 30.17 in 10.0 mi WSW 9.2 mph - N/A   Scattered Clouds
9:58 PM 55.6 °F 45.1 °F 68% 30.17 in 10.0 mi WSW 8.1 mph - N/A   Partly Cloudy
10:58 PM 49.6 °F 44.8 °F 83% 30.17 in 10.0 mi ESE 3.5 mph - N/A   Clear
11:58 PM 46.9 °F 45.0 °F 93% 30.17 in 10.0 mi Variable 2.3 mph - N/A   Clear